Weather History for Lamoni, IA

Change the Weather History Date:

Friday, September 16, 2011

  Actual Average Record
Temperature  
Mean Temperature 50 °F 65 °F  
Max Temperature 53 °F 76 °F 90 °F (1978)
Min Temperature 46 °F 54 °F 41 °F (1984)
Degree Days  
Heating Degree Days 15 3  
Month to date heating degree days 69 24  
Since 1 July heating degree days 69 32  
Cooling Degree Days 0 3  
Month to date cooling degree days 62 70  
Year to date cooling degree days 1117 908  
Moisture  
Dew Point 43 °F    
Average Humidity 79    
Maximum Humidity 86    
Minimum Humidity 71    
Precipitation  
Precipitation 0.10 in 0.09 in 1.35 in (1987)
Month to date precipitation 0.23 2.11  
Year to date precipitation 28.65  
Sea Level Pressure  
Sea Level Pressure 30.26 in    
Wind  
Wind Speed 4 mph (ESE)    
Max Wind Speed 10 mph    
Max Gust Speed 18 mph    
Visibility 10 miles    
Events Rain    
T = Trace of Precipitation, MM = Missing Value Source: NWS Daily Summary

Daily Weather History Graph

Daily Weather History Graph

Search for Another Location

Airport:

Trip Planner

Search our weather history database for the weather conditions in past years. The results will help you decide how hot, cold, wet, or windy it might be!

Date:

Astronomy

Sep. 16, 2011 Rise Set
Actual Time 6:57 AM CDT 7:23 PM CDT
Civil Twilight 6:29 AM CDT 7:50 PM CDT
Nautical Twilight 5:57 AM CDT 8:22 PM CDT
Astronomical Twilight 5:24 AM CDT 8:55 PM CDT
Moon 9:12 PM CDT (9/16) 11:04 AM CDT (9/16)
Length of Visible Light 13h 21m
Length of Day
12h 26m
Waning Gibbous, 84% of the Moon is Illuminated
Sep 16
Waning Gibbous
Sep 20
Last Quarter
Sep 27
New
Oct 3
First Quarter
Oct 11
Full

Hourly Weather History & Observations

Time (CDT) Temp. Dew Point Humidity Pressure Visibility Wind Dir Wind Speed Gust Speed Precip Events Conditions
12:53 AM 48.9 °F 37.0 °F 64% 30.29 in 10.0 mi SE 5.8 mph - 0.01 in Rain Light Rain
1:53 AM 48.0 °F 37.9 °F 68% 30.29 in 10.0 mi ESE 3.5 mph - 0.00 in   Overcast
2:53 AM 48.0 °F 39.0 °F 71% 30.28 in 10.0 mi Calm Calm - N/A   Overcast
3:53 AM 48.0 °F 39.0 °F 71% 30.29 in 10.0 mi East 3.5 mph - 0.00 in Rain Light Rain
4:53 AM 48.0 °F 39.9 °F 74% 30.29 in 10.0 mi Calm Calm - 0.00 in   Overcast
5:53 AM 46.9 °F 43.0 °F 86% 30.29 in 10.0 mi ENE 3.5 mph - 0.01 in Rain Light Rain
6:53 AM 46.9 °F 44.1 °F 90% 30.30 in 10.0 mi Calm Calm - 0.00 in   Overcast
7:53 AM 46.9 °F 44.1 °F 90% 30.31 in 10.0 mi Calm Calm - 0.03 in Rain Light Rain
8:53 AM 46.9 °F 43.0 °F 86% 30.30 in 10.0 mi East 4.6 mph - 0.02 in Rain Light Rain
9:53 AM 48.0 °F 44.1 °F 86% 30.30 in 10.0 mi ESE 4.6 mph - 0.04 in   Overcast
10:53 AM 50.0 °F 43.0 °F 77% 30.30 in 10.0 mi SE 6.9 mph - N/A   Overcast
11:53 AM 48.9 °F 44.1 °F 83% 30.30 in 10.0 mi SSE 5.8 mph - N/A   Overcast
1:53 PM 51.1 °F 44.1 °F 77% 30.26 in 10.0 mi Variable 5.8 mph - N/A   Overcast
2:53 PM 52.0 °F 44.1 °F 74% 30.25 in 10.0 mi SE 6.9 mph - N/A   Overcast
3:27 PM 51.8 °F 44.6 °F 76% 30.23 in 10.0 mi SE 6.9 mph - N/A   Overcast
3:53 PM 52.0 °F 45.0 °F 77% 30.24 in 10.0 mi ESE 5.8 mph - N/A   Overcast
4:12 PM 51.8 °F 44.6 °F 76% 30.22 in 10.0 mi ESE 5.8 mph - N/A   Overcast
4:53 PM 52.0 °F 45.0 °F 77% 30.22 in 10.0 mi ESE 5.8 mph - N/A   Overcast
5:53 PM 52.0 °F 45.0 °F 77% 30.21 in 10.0 mi ESE 5.8 mph - N/A   Overcast
6:53 PM 52.0 °F 45.0 °F 77% 30.21 in 10.0 mi ESE 4.6 mph - N/A   Overcast
7:53 PM 51.1 °F 45.0 °F 80% 30.20 in 10.0 mi ESE 5.8 mph - N/A   Overcast
9:53 PM 51.1 °F 46.0 °F 83% 30.22 in 10.0 mi ESE 5.8 mph - N/A   Overcast
10:53 PM 51.1 °F 46.0 °F 83% 30.22 in 10.0 mi Variable 5.8 mph - N/A   Overcast
11:53 PM 51.1 °F 46.0 °F 83% 30.22 in 10.0 mi ESE 3.5 mph - N/A   Overcast